Temperature
19 19 18 18 17 17 16 16 16 15 15 15 15 15 15 15 15 14 14 14 14 14 14 14 14 14 14 15 15 15 16 15 15 16 15 15 15 15 15 15 15 15 15
19 19 18 18 17 17 16 16 16 15 15 15 15 15 15 15 14 14 14 14 13 13 13 13 14 14 14 14 15 15 15 15 15 15 15 15 15 15 15 15 15 15 15
19 19 18 18 17 17 16 16 16 16 15 15 15 15 15 15 14 14 14 14 13 13 13 13 13 14 14 14 14 14 15 15 15 15 15 15 15 14 14 14 14 14 15
19 19 18 18 17 17 16 16 16 16 16 15 15 15 15 15 15 14 14 14 14 13 13 13 13 14 14 14 14 14 14 15 15 15 14 14 14 14 14 14 14 14 14
19 19 18 18 17 17 16 16 16 16 16 16 15 15 15 15 15 15 14 14 14 14 14 14 14 14 13 14 14 14 14 14 14 14 14 14 14 14 14 14 14 14 13
19 18 18 18 17 17 16 16 16 16 15 16 16 15 15 15 15 15 14 14 14 14 14 14 14 14 14 14 14 14 14 14 14 14 14 14 14 14 14 14 13 13 13
19 18 18 17 17 16 16 16 16 15 15 15 15 15 15 15 15 15 15 14 14 14 14 14 14 14 14 14 14 14 14 14 14 14 14 14 14 14 14 14 13 13 14
18 17 17 16 16 15 15 15 15 15 15 15 15 15 15 15 15 15 15 15 15 14 14 14 14 14 14 14 14 13 13 13 14 14 14 14 14 14 14 14 14 13 13
16 16 15 15 15 15 14 14 14 15 15 15 15 15 15 15 15 15 15 15 15 15 14 14 14 14 14 14 14 13 13 13 13 14 14 14 14 14 14 14 13 13 12
14 14 14 14 14 13 13 13 14 14 14 14 14 14 14 14 15 15 15 15 15 15 14 14 14 14 14 14 14 13 13 13 13 13 14 14 14 14 14 14 14 13 13
13 13 13 13 13 13 13 13 13 13 13 13 14 14 14 14 14 14 14 14 14 14 14 14 14 14 14 14 14 13 13 13 13 13 13 13 14 14 14 14 13 13 13
12 12 12 12 12 12 12 12 12 12 13 13 13 13 13 13 14 14 14 14 14 14 13 13 13 14 13 13 14 14 13 13 13 13 13 13 13 13 13 13 13 12 12
12 12 12 12 12 12 11 11 11 11 12 12 12 12 13 13 13 13 13 13 13 13 13 13 13 13 13 13 13 13 13 13 13 13 13 13 13 12 12 12 12 12 12
13 12 12 12 11 11 11 11 11 11 11 11 12 12 12 12 12 12 13 13 13 13 13 13 13 13 13 13 13 12 12 12 12 12 12 12 12 12 12 12 11 11 11
13 13 12 12 11 11 11 11 11 11 11 11 11 12 12 12 12 12 12 12 12 12 12 12 12 12 12 12 12 12 12 12 12 12 12 12 12 12 11 11 11 11 11
13 12 12 12 11 11 11 11 11 11 11 11 11 11 12 12 12 12 12 12 12 12 12 12 12 12 12 11 11 11 11 11 11 11 11 11 11 11 11 11 11 11 11
12 12 12 12 11 11 11 11 11 11 11 11 11 11 11 11 11 11 12 12 12 11 11 11 11 11 11 11 11 11 11 11 11 11 11 11 11 10 10 10 10 10 10
12 12 12 12 11 11 11 11 11 10 10 10 10 10 11 11 11 11 11 11 11 11 11 10 10 11 10 10 10 10 10 10 10 10 10 10 10 10 10 10 10 10 10
12 12 12 11 11 11 11 11 11 10 10 10 10 10 10 10 10 10 10 10 10 10 10 10 10 10 10 10 10 10 10 10 10 10 10 10 10 10 10 10 10 10 10
12 12 12 12 12 11 11 11 11 10 10 10 9 9 9 9 9 9 9 9 9 9 9 9 9 9 10 10 9 9 9 9 9 9 9 9 9 9 9 9 9 9 9
12 12 12 12 11 11 11 11 11 10 10 10 10 10 9 9 9 9 9 9 9 9 9 9 9 9 9 9 9 9 9 9 9 9 9 9 9 9 9 9 9 9 9
12 12 12 11 11 11 11 11 11 10 10 10 10 10 10 10 9 9 9 9 9 9 9 9 9 9 9 9 9 9 9 9 9 9 9 9 9 8 8 8 8 8 8
12 12 12 11 11 11 11 11 11 10 10 10 10 10 10 10 10 9 9 9 9 9 9 9 9 9 8 8 8 8 8 8 8 8 8 8 8 8 8 8 8 8 8
12 12 11 11 11 11 11 11 11 10 10 10 10 10 10 10 9 9 9 9 9 9 9 9 8 8 8 8 8 8 8 8 8 8 8 8 8 8 8 8 8 8 8
12 12 11 11 11 11 11 11 11 11 10 10 10 10 10 9 9 9 9 9 9 9 9 8 8 8 8 8 8 8 8 8 8 8 8 7 7 7 7 7 7 7 7
12 11 11 11 11 11 11 11 11 10 10 10 10 10 9 9 9 9 9 9 9 9 9 8 8 8 8 8 8 8 8 8 8 8 7 7 7 7 7 7 7 7 7
Wind_Speed
7 6 6 5 4 4 3 3 3 4 5 5 6 5 5 5 5 5 4 4 5 5 5 6 5 4 3 2 1 1 1 2 3 3 4 5 7 8 6 9 14 13 11
7 7 7 6 6 4 4 5 5 5 6 6 7 7 7 7 6 6 6 5 5 5 5 6 6 4 3 1 1 2 2 2 3 4 3 4 6 8 8 7 9 11 12
8 6 6 6 6 6 5 5 5 6 6 7 8 8 7 8 7 7 7 6 6 6 5 6 6 6 4 3 2 2 2 3 3 3 4 3 4 7 8 6 5 5 12
9 7 6 6 5 5 4 5 6 6 7 7 8 8 8 8 9 8 8 7 7 6 6 6 6 6 6 4 3 3 3 4 4 3 4 3 3 4 8 6 5 4 5
8 7 7 6 6 6 5 5 6 5 5 6 7 8 8 8 8 9 9 9 8 8 7 7 8 9 9 7 5 5 4 4 4 4 5 4 4 4 6 6 6 5 5
6 6 5 3 4 5 4 4 5 5 4 4 5 6 8 7 10 12 9 8 9 9 9 9 9 10 12 14 13 10 8 7 6 5 6 6 8 7 5 5 6 5 5
4 5 4 1 0 2 3 4 4 4 5 5 5 5 6 7 12 12 10 4 4 5 7 8 9 10 13 9 12 14 13 15 13 8 8 8 8 9 9 8 7 8 6
8 7 6 4 3 3 3 4 5 5 5 6 6 5 5 9 13 12 10 5 5 5 6 6 7 7 9 10 9 8 9 10 11 11 9 9 8 8 11 12 10 8 5
9 7 7 6 5 4 4 4 4 5 5 5 5 5 5 8 12 12 10 5 5 6 6 5 3 3 4 8 6 7 7 6 6 9 9 6 4 5 6 7 8 7 5
8 7 6 5 5 5 5 5 4 4 4 4 4 5 6 7 12 13 11 4 4 4 3 2 2 3 3 5 4 5 6 5 4 4 5 5 5 5 7 8 9 7 5
6 6 6 5 5 4 5 5 4 4 4 4 4 3 4 5 11 12 10 3 2 2 1 2 0 4 3 4 4 4 5 3 3 4 4 5 4 4 5 4 4 5 5
4 4 5 5 6 6 5 5 5 4 4 4 3 4 2 2 6 7 8 5 1 2 2 1 2 4 2 2 2 3 3 2 1 2 2 3 4 4 4 5 4 2 3
3 3 4 5 5 6 6 6 5 4 3 3 2 3 2 1 4 6 6 5 3 1 1 3 4 4 2 2 2 3 2 2 1 1 1 2 3 3 3 3 2 1 0
2 3 5 6 6 6 6 6 5 6 5 4 3 2 1 1 2 2 2 3 3 3 2 3 4 3 1 1 3 3 2 1 1 1 1 0 1 2 3 3 3 2 1
4 4 5 5 4 5 6 6 6 7 6 5 5 4 3 3 4 5 3 2 1 0 2 3 3 3 3 3 3 3 2 2 1 1 1 1 1 1 2 2 2 3 3
5 5 3 3 2 2 4 5 10 9 11 13 12 8 7 8 6 7 7 5 4 3 1 2 2 3 3 3 2 2 1 1 1 1 1 1 2 2 2 2 3 3 4
4 3 3 3 1 1 1 2 3 4 9 12 13 12 10 8 9 8 7 6 5 4 2 1 1 0 0 1 1 1 1 1 1 1 1 2 2 2 3 3 4 4 4
3 3 1 1 2 2 2 2 2 3 3 4 6 9 8 8 7 6 5 3 3 4 3 3 3 3 3 3 2 1 1 0 0 1 2 2 2 2 3 3 4 5 5
3 3 3 2 2 2 2 3 3 4 4 3 2 3 3 3 3 5 5 3 4 4 4 4 4 4 3 3 2 1 1 1 1 1 1 2 2 2 3 3 4 5 5
4 3 3 3 1 2 3 3 4 4 4 3 4 3 2 1 2 3 3 4 4 4 3 3 3 3 3 3 3 2 2 2 2 2 2 2 2 2 3 4 4 4 4
3 4 1 3 2 3 3 3 4 4 4 4 4 3 4 3 3 4 4 4 4 4 4 4 4 4 4 3 3 4 4 3 3 3 3 2 2 2 3 3 4 4 4
1 4 3 1 3 4 3 3 4 4 4 5 3 2 3 3 3 3 4 4 4 4 4 4 4 4 4 4 4 4 4 4 4 4 4 4 4 4 3 3 3 3 4
2 2 3 3 4 3 1 3 4 4 4 4 3 2 2 3 3 4 4 4 4 5 4 5 5 5 5 4 4 5 4 4 5 5 5 5 4 4 4 4 5 4 4
2 2 3 3 3 2 2 3 4 3 3 3 3 3 3 3 3 4 4 4 5 5 5 5 6 7 8 7 7 7 7 7 8 6 6 5 5 4 4 4 4 4 4
2 3 4 3 2 2 2 3 4 3 3 3 4 4 4 4 4 5 5 5 6 6 7 6 6 7 9 9 9 9 11 12 10 8 6 5 5 5 4 3 3 3 3
3 3 4 3 2 2 2 3 3 3 3 4 4 4 4 5 5 5 5 5 5 6 6 5 8 10 11 11 11 13 13 13 11 10 6 4 4 3 3 3 3 3 3
Wind_Direction
189 173 152 187 181 168 186 154 148 149 151 159 154 154 156 158 163 162 164 170 184 187 175 168 168 170 203 229 269 285 252 187 210 229 201 165 154 157 154 150 159 162 160
183 175 174 175 159 180 201 175 176 173 168 168 159 166 169 168 168 167 167 165 166 168 161 155 154 159 181 207 253 263 264 248 219 225 209 178 172 167 161 177 177 181 164
175 182 174 174 179 190 207 180 185 186 177 173 166 170 176 175 176 176 175 172 171 166 164 161 160 160 174 187 213 244 258 269 253 226 219 203 195 172 163 185 189 170 164
170 177 181 185 180 180 203 190 200 206 189 182 178 177 179 179 180 178 179 179 179 178 178 179 179 179 185 187 207 226 239 254 258 252 229 197 210 184 166 176 192 188 167
164 170 177 193 179 185 211 209 204 220 211 192 184 180 177 180 186 183 185 186 189 191 194 200 203 203 208 207 212 216 221 230 239 241 234 198 195 193 192 180 184 181 199
161 164 157 176 173 181 212 237 217 206 223 227 200 184 179 186 174 175 184 192 197 199 202 207 211 212 220 223 228 229 225 227 228 233 234 215 205 202 198 187 174 171 209
77 90 96 86 8 192 226 246 247 220 218 234 233 203 182 164 165 171 184 198 211 212 207 207 216 216 212 217 227 235 240 240 233 231 237 232 214 200 196 199 196 195 204
44 44 42 25 9 339 290 268 255 240 225 228 241 226 183 173 174 174 176 199 230 241 236 225 216 215 205 206 215 221 231 238 233 229 233 235 225 206 196 201 203 203 209
35 31 30 18 2 340 313 298 283 271 251 228 228 228 203 174 176 172 168 195 229 246 247 240 231 236 198 191 203 221 238 250 236 219 220 213 202 212 206 185 185 187 193
30 29 23 12 352 334 325 312 303 294 285 261 239 220 202 183 181 179 179 195 226 248 263 255 214 195 157 173 208 223 232 240 223 193 206 204 202 203 200 187 183 186 186
27 22 15 8 353 3 351 336 328 320 311 297 279 252 225 190 177 182 183 204 235 275 296 295 128 152 172 202 226 238 237 233 217 201 200 195 194 194 197 201 189 184 190
40 26 19 20 15 13 4 354 352 350 333 313 306 293 269 157 158 186 190 205 316 324 313 322 120 139 165 216 231 203 197 200 209 192 193 196 200 201 201 201 198 196 186
42 39 42 44 49 31 18 11 7 4 354 335 320 297 280 160 140 162 188 203 218 266 14 69 125 143 151 202 191 176 195 211 187 180 211 226 221 196 170 172 186 163 30
64 65 70 52 49 50 33 21 21 16 7 353 344 323 300 119 120 137 183 198 207 214 197 132 127 122 296 304 159 203 235 189 151 199 214 195 104 140 159 163 167 163 191
47 68 84 82 71 71 65 41 31 44 34 18 5 16 25 57 47 51 48 45 26 278 177 154 173 185 213 222 207 198 191 162 166 173 132 144 144 148 159 152 151 152 179
45 37 48 88 92 101 120 100 58 57 52 49 43 48 55 58 60 62 63 54 35 26 71 198 218 226 217 207 194 178 172 180 184 162 171 187 201 197 185 169 167 182 203
63 41 31 42 68 92 135 134 128 81 66 56 48 50 58 58 58 60 60 52 38 26 41 49 30 345 2 120 113 126 181 200 185 204 221 229 226 220 203 199 199 204 216
77 100 17 13 5 27 48 64 106 121 92 66 54 50 53 56 53 47 28 15 41 39 37 43 41 36 45 53 63 58 21 4 227 250 254 256 251 244 240 225 216 217 221
46 54 31 19 25 47 56 60 82 98 104 100 101 73 46 40 30 15 2 30 61 54 46 42 35 29 26 26 33 26 349 320 301 275 276 275 267 259 257 252 244 235 230
101 75 3 335 12 74 83 84 85 91 94 83 69 51 15 9 35 38 36 40 53 54 47 43 33 24 18 11 8 359 345 336 333 325 307 294 283 270 267 265 254 245 236
148 138 219 300 31 64 77 92 97 95 90 84 75 50 8 23 54 54 50 45 45 43 39 39 36 24 19 13 8 2 1 1 2 352 342 327 311 294 279 272 271 263 252
163 155 178 107 74 63 59 81 93 99 100 101 111 100 23 31 52 55 52 50 47 43 37 37 38 30 17 11 11 12 10 10 7 359 345 332 322 311 301 287 277 270 258
243 150 125 104 104 112 110 105 106 108 111 111 103 88 66 59 55 49 49 45 47 44 35 34 38 31 22 20 24 25 20 10 353 339 329 319 313 309 304 295 288 284 272
214 139 118 115 114 124 112 113 119 120 117 116 112 95 82 73 65 60 56 53 52 46 39 39 40 32 28 24 25 31 22 358 337 323 320 312 307 301 297 293 289 286 283
188 141 123 126 132 130 121 121 125 124 117 106 100 95 86 77 69 63 57 56 59 55 50 40 31 28 22 21 19 9 353 347 342 329 311 302 301 302 301 297 296 297 290
165 141 130 134 139 139 129 127 129 125 111 101 94 90 84 80 76 67 58 53 54 50 45 36 33 35 23 12 5 359 353 349 345 338 321 301 311 320 328 322 316 312 307
Height
1482 1484 1484 1485 1486 1486 1487 1487 1487 1488 1488 1488 1489 1489 1490 1490 1491 1492 1493 1494 1496 1498 1500 1503 1506 1508 1513 1516 1519 1522 1525 1527 1529 1531 1533 1534 1534 1535 1536 1536 1537 1537 1538
1480 1482 1482 1484 1484 1485 1485 1486 1486 1487 1487 1488 1488 1489 1489 1489 1490 1491 1492 1493 1494 1495 1497 1499 1502 1505 1509 1512 1515 1518 1521 1523 1526 1527 1529 1530 1531 1532 1533 1534 1534 1535 1535
1477 1480 1481 1482 1482 1483 1484 1485 1485 1486 1486 1487 1488 1488 1488 1489 1489 1490 1491 1492 1493 1494 1495 1497 1499 1502 1505 1508 1511 1514 1517 1519 1521 1523 1525 1527 1528 1529 1530 1531 1532 1532 1532
1474 1477 1479 1480 1481 1481 1482 1483 1483 1485 1485 1486 1486 1487 1487 1488 1488 1489 1490 1491 1492 1493 1495 1496 1498 1500 1503 1505 1508 1511 1513 1515 1517 1519 1521 1522 1524 1526 1526 1527 1528 1529 1529
1473 1475 1476 1478 1479 1479 1480 1481 1481 1482 1483 1484 1485 1485 1485 1486 1487 1488 1489 1490 1491 1492 1494 1495 1497 1498 1500 1502 1504 1506 1509 1511 1513 1515 1517 1518 1519 1521 1522 1523 1524 1525 1526
1472 1473 1475 1476 1477 1477 1478 1479 1479 1480 1480 1482 1482 1483 1483 1484 1485 1487 1488 1489 1490 1491 1492 1493 1495 1496 1497 1499 1501 1503 1505 1507 1508 1510 1512 1513 1514 1516 1518 1519 1520 1521 1522
1471 1472 1473 1474 1475 1475 1475 1475 1476 1476 1477 1478 1479 1480 1481 1482 1483 1485 1486 1487 1488 1490 1491 1491 1492 1493 1495 1496 1497 1499 1500 1502 1504 1506 1507 1508 1510 1511 1512 1514 1515 1516 1517
1470 1470 1471 1471 1471 1471 1472 1472 1472 1473 1474 1474 1476 1477 1478 1479 1480 1482 1483 1485 1486 1487 1488 1489 1490 1491 1491 1492 1493 1494 1495 1497 1498 1500 1501 1503 1505 1506 1507 1508 1510 1512 1515
1469 1469 1468 1468 1468 1468 1468 1468 1469 1470 1470 1471 1472 1474 1475 1476 1477 1478 1480 1482 1483 1485 1486 1487 1487 1488 1488 1489 1490 1491 1491 1492 1494 1495 1496 1497 1499 1500 1502 1503 1504 1506 1508
1469 1468 1467 1466 1465 1465 1464 1464 1465 1466 1467 1468 1469 1470 1471 1472 1474 1476 1477 1479 1480 1482 1483 1484 1484 1485 1485 1485 1486 1486 1487 1488 1490 1491 1492 1493 1494 1495 1496 1498 1499 1501 1502
1469 1468 1467 1465 1464 1463 1462 1461 1461 1462 1463 1464 1465 1467 1468 1469 1470 1472 1474 1476 1478 1479 1480 1481 1481 1481 1482 1482 1482 1482 1483 1485 1486 1486 1487 1488 1489 1490 1491 1493 1494 1496 1498
1470 1469 1467 1465 1463 1462 1460 1459 1459 1459 1460 1461 1462 1463 1465 1466 1467 1469 1471 1473 1474 1476 1477 1478 1478 1478 1478 1478 1478 1479 1480 1481 1482 1483 1483 1484 1485 1485 1486 1488 1489 1491 1493
1471 1470 1468 1466 1464 1462 1460 1459 1458 1458 1459 1459 1460 1461 1462 1463 1464 1466 1468 1470 1471 1473 1474 1475 1475 1475 1475 1475 1476 1476 1477 1478 1479 1480 1480 1481 1481 1481 1482 1483 1484 1486 1488
1473 1471 1469 1467 1465 1463 1462 1460 1460 1459 1459 1459 1459 1460 1461 1462 1463 1464 1466 1468 1469 1471 1471 1472 1473 1473 1473 1473 1474 1475 1476 1476 1477 1478 1478 1478 1478 1478 1479 1479 1480 1482 1483
1473 1472 1470 1469 1467 1466 1464 1463 1462 1461 1461 1461 1460 1460 1461 1462 1463 1464 1465 1466 1468 1468 1469 1470 1470 1471 1471 1472 1472 1473 1474 1475 1475 1476 1476 1476 1476 1476 1476 1477 1477 1478 1479
1474 1473 1472 1471 1469 1468 1467 1466 1465 1464 1463 1463 1462 1461 1461 1462 1462 1463 1464 1465 1466 1467 1468 1468 1469 1469 1470 1471 1471 1472 1473 1473 1473 1474 1474 1474 1474 1474 1475 1475 1475 1476 1476
1474 1473 1473 1472 1471 1470 1469 1468 1467 1467 1465 1464 1463 1463 1462 1462 1463 1463 1464 1464 1465 1465 1466 1467 1468 1468 1469 1470 1470 1471 1471 1472 1472 1472 1472 1472 1472 1473 1473 1473 1473 1473 1474
1475 1474 1473 1472 1472 1471 1470 1469 1468 1467 1466 1465 1464 1464 1463 1463 1463 1463 1464 1465 1465 1465 1466 1467 1467 1468 1468 1469 1469 1470 1470 1470 1470 1470 1470 1470 1470 1470 1470 1470 1470 1470 1470
1475 1474 1473 1473 1472 1471 1471 1470 1469 1468 1468 1467 1466 1466 1465 1465 1464 1464 1465 1465 1466 1466 1467 1467 1467 1468 1468 1468 1468 1468 1469 1469 1468 1468 1468 1468 1468 1468 1467 1467 1467 1467 1467
1474 1473 1473 1473 1473 1472 1472 1471 1470 1470 1469 1469 1468 1468 1467 1467 1467 1467 1467 1467 1467 1467 1468 1468 1468 1468 1468 1467 1467 1467 1467 1467 1467 1466 1466 1466 1465 1465 1464 1464 1463 1463 1462
1474 1473 1473 1473 1473 1473 1473 1472 1472 1471 1471 1471 1470 1470 1469 1469 1469 1469 1469 1469 1469 1469 1468 1468 1468 1467 1467 1467 1466 1466 1466 1465 1465 1464 1464 1463 1462 1462 1461 1460 1459 1459 1458
1474 1474 1473 1474 1473 1473 1473 1473 1473 1473 1473 1473 1472 1472 1472 1472 1471 1471 1471 1471 1470 1470 1469 1469 1468 1467 1467 1466 1465 1465 1464 1463 1463 1462 1461 1460 1459 1458 1457 1456 1455 1454 1453
1473 1473 1473 1473 1473 1474 1474 1474 1474 1474 1474 1474 1474 1474 1474 1474 1474 1473 1473 1472 1472 1471 1470 1469 1468 1467 1466 1465 1464 1463 1462 1461 1460 1459 1458 1457 1456 1454 1453 1452 1450 1449 1448
1472 1472 1473 1473 1473 1474 1474 1475 1475 1475 1475 1476 1476 1476 1476 1476 1475 1475 1474 1473 1472 1471 1470 1469 1468 1466 1465 1464 1462 1461 1459 1458 1457 1456 1455 1453 1452 1451 1449 1448 1446 1445 1444
1471 1471 1472 1472 1473 1474 1475 1475 1475 1476 1476 1477 1477 1477 1477 1477 1476 1475 1474 1474 1472 1471 1470 1468 1466 1465 1463 1462 1460 1459 1457 1455 1454 1452 1451 1450 1449 1448 1447 1445 1443 1442 1440
1469 1470 1471 1472 1473 1474 1474 1475 1476 1476 1477 1477 1478 1478 1478 1477 1476 1475 1475 1473 1472 1471 1469 1468 1466 1464 1462 1461 1459 1457 1455 1453 1451 1450 1449 1448 1447 1446 1444 1443 1441 1440 1438